STARLINK-5021, 53902

Orbit data source: Space-Track

STARLINK-5021, 53902 is a payload satellite owned by SpaceX/Seattle (US) in LEO that was launched on Sat, 24 Sep 2022 UTC via an FALCON 9 launch vehicle from the Air Force Eastern Test Range (AFETR). Payload-class satellites include a variety of spacecraft equipped with specific instruments for various scientific and technological missions. These include communications satellites like Starlink; space stations such as the ISS; scientific satellites like the Hubble; Earth observation satellites from companies like Planet Labs, Umbra, and HawkEye 360; GPS; miniature CubeSats for education and research; and military/defense satellites.

Loading next visibility...
Identifier
53902, 2022-119S
Orbit
LEO
Country
Flag of USUS
Related business
Manufacturer
SpaceX/Seattle
Mission
Operational Commercial Communications
Bus & Motor
STARLINK, Unknown motor
Mass
305 kg wet, ~290 kg dry
Launch date (UTC)
2022-09-24 (4 years ago)
Launch vehicle
FALCON 9
Launch site
Air Force Eastern Test Range (AFETR)
Object type
Payload
Rocket body
Debris
Shape & HBR
Box + 1 Pan, 10.1 m
Radar Cross Section
13.562 m², Large (>1 m²)

Expand to show TLE details & history
Last TLE update: 2 days ago

TLE from 2 days ago
0 STARLINK-5021
1 53902U 22119S   26171.38907214 -.00000300  00000-0 -78365-6 0  9995
2 53902  53.1603 172.7237 0001064  85.2111 274.9002 15.08830213207898
Epoch: 2026-06-20T09:20Z
TLE epoch observation values (Epoch: 2026-06-20T09:20:15.832Z)
Latitude
-0.00004°
Longitude
124.05331°
Altitude
540.602 km
Speed
7.593 km/s
True Right ascension
11h 30m 53s
True Declination
0° 00' 00"
Sunlit
Object was in daylight at epoch
Visualization orbit readout
Latitude
Unknown
Longitude
Unknown
Altitude
Unknown
Speed
Unknown
Apparent Right ascension
Unknown
Apparent Declination
Unknown
Sunlit
N/A
Visualization observer readout
Local Sidereal Time
21:30:43
Azimuth
Unknown
Elevation
Unknown
Doppler factor
Unknown
Orbital elements
Apogee altitude
540.763 km
Perigee altitude
539.291 km
Semi-major axis
6,918.164 km
Eccentricity
0.00011
Inclination
53.1603°
RAAN
172.7237°
Arg. of periapsis
85.2111°
True anomaly
274.88805°
Mean anomaly
274.9002°
Eccentric anomaly
274.89413°
Mean motion
3.77187 °/min
Orbital period
95.44 mins
BSTAR
-7.8365e-7
Loading maneuver chart data...
Computing Atmospheric mass density...
Loading historical data...
Loading historical data...
Loading historical data...
Loading historical data...
Loading historical data...
Loading historical data...
Loading historical data...

Documentation

Showing up to 5 results
|